Location: Brienzwiler
(46.7508°N, 8.1014°E)
Time: 01:33:49
(UTC+00:00)

Cosmos 1606 - Pass Details

Date: 05 July 2020
Orbit: 504 x 527 km, 82.5° (Epoch: 11 August)

Event Time Altitude Azimuth Distance (km) Brightness Sun altitude
Rises 22:45:59 0° 352° (N) 2,664 8.0 -19.8°
Reaches altitude 10° 22:48:08 10° 354° (N) 1,773 6.6 -19.9°
Maximum altitude 22:52:02 77° 81° (E) 545 2.7 -20.0°
Enters shadow 22:52:38 61° 147° (SSE) 603 2.7 -20.0°
